Regional Weather Roundup
Issued by NWS

Home | Current Version | Previous Version | Graphics & Text | Print | Product List | Glossary On
Versions: 1 2 3 4 5 6 7 8 9 10 11 12 13 14 15 16 17 18 19 20 21 22 23 24 25 26 27 28 29 30 31 32 33 34 35 36 37 38 39 40 41 42 43 44 45 46 47 48 49 50
000
ASUS43 KMPX 172210
RWRMN
WEATHER ROUNDUP FOR MINNESOTA
NATIONAL WEATHER SERVICE TWIN CITIES/CHANHASSEN MN
500 PM CDT FRI APR 17 2015


NOTE: "FAIR" INDICATES FEW OR NO CLOUDS BELOW 12,000 FEET WITH NO
SIGNIFICANT WEATHER AND/OR OBSTRUCTIONS TO VISIBILITY. N/A MEANS
CURRENT SKY AND/OR WEATHER CONDITIONS ARE NOT AVAILABLE.

MNZ060>063-068>070-172300-
   Twin Cities Metro

CITY           SKY/WX    TMP DP  RH WIND       PRES   REMARKS
TWIN CITIES    MOSUNNY   74  34  23 SW6       30.01F
ST PAUL        SUNNY     75  31  19 NW10      30.01F
CRYSTAL        SUNNY     75  29  18 NW7G16    30.01F
BLAINE         SUNNY     75  30  19 W3        30.01F
LAKEVILLE      SUNNY     72  41  33 W9        30.02S
EDEN PRAIRIE   SUNNY     74  35  24 NW7       30.01F
SOUTH ST PAUL  SUNNY     74  31  21 NW5       30.01S
LAKE ELMO      FAIR      73  36  25 W8        30.02F
$$
MNZ001>005-007-008-013>017-022>024-027-028-172300-
   Northwest Minnesota

CITY           SKY/WX    TMP DP  RH WIND       PRES   REMARKS
BEMIDJI        SUNNY     72  22  15 W20G25    30.00S
HALLOCK        SUNNY     66   0   7 N24G32    30.04R
ROSEAU         SUNNY     66  18  15 NW18G26   30.02R
WARROAD        SUNNY     68  25  19 NW22      30.01R
THIEF RVR FALL SUNNY     72  28  20 N24       30.00R
CROOKSTON      SUNNY     75  25  15 NW18G29   29.99S
FOSSTON        SUNNY     73  21  14 NW18G26   30.00F
DETROIT LAKES  SUNNY     72  18  13 W12G22    30.04F
MOORHEAD       SUNNY     75  18  11 NW14G20   30.03S
PARK RAPIDS    SUNNY     74  17  11 NW16G26   30.01F
MAHNOMEN       FAIR      73  20  13 NW18      30.00F
$$
MNZ006-009>011-018-025>026-172300-
   North Central Minnesota

CITY           SKY/WX    TMP DP  RH WIND       PRES   REMARKS
BAUDETTE       SUNNY     67  27  22 NW26G33   29.98R
FLAG ISLAND    SUNNY     55  25  30 N26       30.01R
INTL FALLS     SUNNY     71  19  14 NW24G40   29.92S
WASKISH        SUNNY     61  30  31 CALM      29.97S
BIG FORK       SUNNY     72  21  15 W13G24    29.98S
LONGVILLE      SUNNY     72  19  14 NW7G17    30.01S
GRAND RAPIDS   SUNNY     70  23  17 NW14G21   30.00S
ORR            SUNNY     70  18  13 W9G24     29.94R
COOK           SUNNY     70  25  18 W16G26    29.96R
WALKER         FAIR      70  21  15 W16G24    30.00F
$$
MNZ012-019>021-037-172300-
   Northeast Minnesota

CITY           SKY/WX    TMP DP  RH WIND       PRES   REMARKS
DULUTH         SUNNY     73  24  16 W14G22    29.97F
ELY            SUNNY     70  18  13 W15G25    29.94F
HIBBING        SUNNY     71  19  14 NW8G23    29.97F
EVELETH        SUNNY     68  19  15 W14G28    29.98S
DULUTH HARBOR  SUNNY     72  27  18 W12G29    29.96F
TWO HARBORS    SUNNY     75  36  23 W10G21    29.93S
SILVER BAY     SUNNY     73  21  14 W3        29.92F
GRAND MARAIS     N/A     46  34  62 SW10      29.94F
G MARAIS ARPRT SUNNY     59  18  20 S10       29.95F
$$
MNZ029>031-032-039>041-046>048-054>057-064-172300-
   West Central Minnesota

CITY           SKY/WX    TMP DP  RH WIND       PRES   REMARKS
FERGUS FALLS   SUNNY     73  10   9 NW16      30.04S
WHEATON        SUNNY     70  23  17 NW9G16    30.07S
MORRIS         SUNNY     73  19  13 NW13      30.04F
ALEXANDRIA     SUNNY     71  17  12 NW10      30.06F
ELBOW LAKE     FAIR      70  22  16 NW6       30.04F
WADENA         SUNNY     70  28  21 NW13G20   30.04S
GLENWOOD       SUNNY     72  19  14 NW8G17    30.06S
APPLETON       SUNNY     73   9   8 NW3       30.05S
BENSON         SUNNY     75   5   6 N8        30.05S
ORTONVILLE     SUNNY     72  16  12 NW3       30.06S
MADISON        SUNNY     72  12  10 NW8       30.06S
WILLMAR        FAIR      73  21  14 NW6       30.05S
$$
MNZ033>034-036-042>043-049>051-058-059-172300-
   Central Minnesota

CITY           SKY/WX    TMP DP  RH WIND       PRES   REMARKS
ST CLOUD       SUNNY     72  24  16 NW12      30.02F
SAUK CENTRE    FAIR      71  19  14 NW9       30.04F
PAYNESVILLE    SUNNY     71  22  16 W9        30.04F
AITKIN         SUNNY     75  -9   3 W3        29.99F
PINE RIVER     SUNNY     72  30  21 NW5       30.04S
BRAINERD       SUNNY     71  18  13 W9G17     30.02F
STAPLES        SUNNY     72  18  13 NW15      30.03F
LONG PRAIRIE   FAIR      70  21  16 W7        30.05S
LITTLE FALLS   SUNNY     70  21  16 W10       30.03S
LITCHFIELD     SUNNY     73  28  19 W6        30.04S
BUFFALO        SUNNY     72  28  19 W3        30.03F
MAPLE LAKE     SUNNY     73  33  22 W8        30.04S
$$
MNZ037-044-045-052-053-172300-
   East Central Minnesota

CITY           SKY/WX    TMP DP  RH WIND       PRES   REMARKS
PRINCETON      SUNNY     73  25  16 W7        30.02F
MORA           SUNNY     70  23  17 W8        30.02F
CAMBRIDGE      SUNNY     73  45  35 NW8G16    30.00F
RUSH CITY      SUNNY     73  24  16 W6        30.01F
MOOSE LAKE     SUNNY     73  30  20 NW5       29.98S
HINCKLEY       FAIR      72  27  18 W9G22     30.01S
CLOQUET        SUNNY     72  10   9 W10G18    29.98S
MCGREGOR       SUNNY     72  21  15 W9        30.00F
$$
MNZ071>073-080-081-089-090-097-098-172300-
   Southwest Minnesota

CITY           SKY/WX    TMP DP  RH WIND       PRES   REMARKS
MONTEVIDEO     SUNNY     75  21  13 NW9       30.06S
GRANITE FALLS  SUNNY     74  24  15 N6        30.06S
CANBY          SUNNY     72  14  11 N6        30.07S
MARSHALL       SUNNY     73  19  13 NW5       30.05S
REDWOOD FALLS  SUNNY     75  28  17 W7        30.03S
OLIVIA         SUNNY     72  28  20 W5        30.03S
PIPESTONE      SUNNY     73  32  21 N8        30.05F
WINDOM         SUNNY     73  34  23 CALM      30.04F
WORTHINGTON    CLOUDY    72  41  33 N5        30.04S
JACKSON        SUNNY     75  36  23 N9G16     30.03F
TRACY          SUNNY     75  28  17 NW8       30.05S
SLAYTON        SUNNY     73  32  22 N8        30.05F
$$
MNZ065>067-074>077-082>085-091>093-172300-
   South Central Minnesota

CITY           SKY/WX    TMP DP  RH WIND       PRES   REMARKS
MANKATO        SUNNY     73  39  29 W6        30.02S
NEW ULM        SUNNY     75  36  23 NW8       30.02S
ST JAMES       SUNNY     77  30  18 NW3       30.03S
FAIRMONT       PTSUNNY   75  39  27 N12       30.02F
GLENCOE        SUNNY     74  37  25 N3        30.02F
FARIBAULT      SUNNY     75  41  29 NW7       30.02S
OWATONNA       SUNNY     75  39  27 W10G16    30.02S
ALBERT LEA     SUNNY     77  41  27 NW9       30.01F
$$
MNZ078>079-086>088-094>096-172300-
   Southeast Minnesota

CITY           SKY/WX    TMP DP  RH WIND       PRES   REMARKS
ROCHESTER      PTSUNNY   75  45  34 NW13      30.02F
RED WING       SUNNY     77  37  24 NW10      29.99F
STANTON        SUNNY     75  41  29 NW9       30.00S
DODGE CENTER   MOSUNNY   73  45  35 W8        30.02F
WINONA         MOSUNNY   77  45  31 NW10      29.99S
AUSTIN         SUNNY     75  45  33 W5        30.02S
PRESTON        SUNNY     72  44  36 NW6       30.02F
$$
ABBREVIATIONS USED IN REMARKS
   TC - TEMPERATURES IN CELSIUS
  WCI - WIND CHILL INDEX
   HX - HEAT INDEX
  VSB - VISIBILITY
$$


USA.gov is the U.S. government's official web portal to all federal, state and local government web resources and services.